Hourly Data Report for September 27, 2017

All times are specified in Local Standard Time (LST). Add 1 hour to adjust for Daylight Saving Time where and when it is observed.

EDMUNDSTON
NEW BRUNSWICK

47°25'00.000" N
68°19'28.040" W
154.20 m
8101303
71590
ERM

Download Data

Hourly Data (September 2017)
Hourly Data Report for September 27, 2017
Temp Definition
°C
Dew Point Temp Definition
°C
Rel Hum Definition
%
Wind Dir Definition
10's deg

Wind Spd Definition
km/h
Visibility Definition
km
Stn Press Definition
kPa
Hmdx Definition


Wind Chill Definition


Weather Definition


TIME
00:00 16.1 12.1 77 14 5   99.72     LegendNANA
01:00 15.7 11.8 78 11 3   99.70     LegendNANA
02:00 15.0 13.1 89 13 6   99.70     LegendNANA
03:00 14.1 11.7 85 13 8   99.66     LegendNANA
04:00 13.3 10.7 84 14 7   99.63     LegendNANA
05:00 13.2 10.3 83 14 5   99.57     LegendNANA
06:00 12.6 9.9 83 14 7   99.50     LegendNANA
07:00 12.5 9.8 84 13 10   99.50     LegendNANA
08:00 12.4 10.4 87 13 7   99.42     LegendNANA
09:00 13.0 11.5 91 14 8   99.36     LegendNANA
10:00 13.5 12.1 92 15 7   99.31     LegendNANA
11:00 15.1 13.3 89 14 10   99.20     LegendNANA
12:00 16.0 13.5 85 13 11   99.13     LegendNANA
13:00 16.8 14.2 85 12 8   98.99     LegendNANA
14:00 19.1 15.2 78 14 8   98.87     LegendNANA
15:00 20.7 15.9 74 12 9   98.76 25   LegendNANA
16:00 18.6 16.8 89 10 6   98.64     LegendNANA
17:00 17.6 16.3 92 4 4   98.62     LegendNANA
18:00 17.5 16.4 93 0 1   98.60     LegendNANA
19:00 17.4 16.5 94 12 4   98.46     LegendNANA
20:00 17.1 15.5 91 34 14   98.65     LegendNANA
21:00 16.4 15.5 94 33 3   98.42     LegendNANA
22:00 16.4 15.4 94 13 7   98.39     LegendNANA
23:00 16.6 15.6 94 13 7   98.35     LegendNANA

Notes on Data Quality.

Legend

  • E = Estimated
  • M = Missing
  • NA = Not Available
  • ‡ = Partner data that is not subject to review by the National Climate Archives
Date modified: